TimeMDT,TemperatureF,Dew PointF,Humidity,Sea Level PressureIn,VisibilityMPH,Wind Direction,Wind SpeedMPH,Gust SpeedMPH,PrecipitationIn,Events,Conditions,WindDirDegrees,DateUTC
12:53 AM,73.9,34.0,23,29.77,10.0,SE,8.1,-,N/A,,Scattered Clouds,140,2013-08-03 06:53:00
1:53 AM,77.0,37.0,24,29.76,10.0,SE,9.2,-,N/A,,Scattered Clouds,140,2013-08-03 07:53:00
2:53 AM,77.0,35.1,22,29.77,10.0,South,12.7,-,N/A,,Scattered Clouds,190,2013-08-03 08:53:00
3:53 AM,75.9,33.1,21,29.79,10.0,SSW,6.9,-,N/A,,Scattered Clouds,210,2013-08-03 09:53:00
4:53 AM,75.0,33.1,22,29.80,10.0,ESE,3.5,-,N/A,,Mostly Cloudy,120,2013-08-03 10:53:00
5:53 AM,71.1,39.0,31,29.84,10.0,WNW,5.8,-,N/A,,Scattered Clouds,300,2013-08-03 11:53:00
6:53 AM,70.0,46.0,42,29.86,10.0,NNE,3.5,-,N/A,,Scattered Clouds,20,2013-08-03 12:53:00
7:53 AM,73.0,51.1,46,29.88,10.0,Calm,Calm,-,N/A,,Mostly Cloudy,0,2013-08-03 13:53:00
8:53 AM,77.0,48.9,37,29.90,10.0,North,4.6,-,N/A,,Scattered Clouds,350,2013-08-03 14:53:00
9:53 AM,81.0,46.0,29,29.91,10.0,North,3.5,-,N/A,,Scattered Clouds,350,2013-08-03 15:53:00
10:53 AM,87.1,39.9,19,29.89,10.0,South,6.9,-,N/A,,Scattered Clouds,190,2013-08-03 16:53:00
11:53 AM,93.0,27.0,9,29.88,10.0,SSE,19.6,25.3,N/A,,Scattered Clouds,160,2013-08-03 17:53:00
12:53 PM,95.0,26.1,9,29.86,10.0,SSE,15.0,24.2,N/A,,Scattered Clouds,160,2013-08-03 18:53:00
1:53 PM,93.9,23.0,8,29.85,10.0,SSW,9.2,-,N/A,,Scattered Clouds,210,2013-08-03 19:53:00
2:53 PM,95.0,35.1,12,29.83,10.0,West,9.2,17.3,N/A,,Scattered Clouds,270,2013-08-03 20:53:00
3:53 PM,95.0,35.1,12,29.81,10.0,NW,10.4,-,N/A,,Scattered Clouds,320,2013-08-03 21:53:00
4:53 PM,95.0,32.0,11,29.81,10.0,North,10.4,17.3,N/A,,Scattered Clouds,360,2013-08-03 22:53:00
5:53 PM,93.0,30.0,11,29.81,10.0,NNW,13.8,-,N/A,,Scattered Clouds,340,2013-08-03 23:53:00
6:53 PM,91.9,30.9,11,29.81,10.0,North,16.1,21.9,N/A,,Scattered Clouds,350,2013-08-04 00:53:00
7:53 PM,89.1,30.9,12,29.81,10.0,North,11.5,-,N/A,,Scattered Clouds,360,2013-08-04 01:53:00
8:53 PM,84.0,35.1,17,29.81,10.0,North,9.2,-,N/A,,Scattered Clouds,350,2013-08-04 02:53:00
9:53 PM,81.0,41.0,24,29.82,10.0,Calm,Calm,-,N/A,,Partly Cloudy,0,2013-08-04 03:53:00
10:53 PM,79.0,36.0,21,29.82,10.0,SSE,8.1,-,N/A,,Clear,150,2013-08-04 04:53:00
11:53 PM,78.1,33.1,19,29.81,10.0,SE,8.1,-,N/A,,Partly Cloudy,140,2013-08-04 05:53:00